Location: Newark
(43.6486°N, 79.3853°W)
Time: 12:57:31
(UTC+00:00)

ISS - Pass Details

Date: 03 April 2020
Orbit: 417 x 419 km, 51.6° (Epoch: 03 June)

Event Time Altitude Azimuth Distance (km) Brightness Sun altitude
Rises 01:55:08 0° 297° (WNW) 2,365 1.5 -22.6°
Reaches altitude 10° 01:57:19 10° 289° (WNW) 1,497 0.1 -22.9°
Enters shadow 01:59:43 32° 251° (WSW) 743 -2.2 -23.3°
